Regional Weather Roundup
Issued by NWS Charleston, SC

Current Version | Previous Version | Graphics & Text | Print | Product List | Glossary On
Versions: 1 2 3 4 5 6 7 8 9 10 11 12 13 14 15 16 17 18 19 20 21 22 23 24 25 26 27 28 29 30 31 32 33 34 35 36 37 38 39 40 41 42 43 44 45 46 47 48 49 50
480
ASUS42 KCHS 280127
RWRCHS

REGIONAL WEATHER ROUNDUP
NATIONAL WEATHER SERVICE CHARLESTON SC
900 PM EDT SAT MAY 27 2017

NOTE: "FAIR" INDICATES FEW OR NO CLOUDS BELOW 12,000 FEET WITH NO
SIGNIFICANT WEATHER AND/OR OBSTRUCTIONS TO VISIBILITY.

NOT ALL STATIONS ARE QUALITY CONTROLLED. USE DATA WITH CAUTION...
ESPECIALLY DEWPOINT OBSERVATIONS.

SCZ027-030-031-034>040-042>050-280200-
...SOUTHEAST SOUTH CAROLINA...

CITY           SKY/WX    TMP DP  RH WIND       PRES   REMARKS
N CHARLESTON   CLEAR     76  68  76 S7        29.93R
WATERFRONT PRK   N/A     79  71  76 SW7       29.90S
JOHNS ISLAND   FAIR      77  72  83 SW7       29.94R
PINOPOLIS        N/A     82  72  69 W7        29.85R
MONCKS CORNER  FAIR      73  63  68 CALM      29.92S
SUMMERVILLE    FAIR      75  64  69 CALM      29.94R
BEAUFORT MCAS  CLEAR     80  70  71 CALM      29.93R
BEAUFORT ARPT  FAIR      77  70  78 S3        29.93R
HILTON HEAD IS CLEAR     79  72  78 S8        29.94R
WALTERBORO     CLEAR     75  64  69 SW3       29.94R
ALLENDALE      FAIR      77  63  61 CALM      29.93R

...SOUTHERN MIDLANDS AND PEE DEE...

CITY           SKY/WX    TMP DP  RH WIND       PRES   REMARKS
GEORGETOWN     FAIR      73  70  88 S6        29.93R
KINGSTREE      FAIR      73  64  73 CALM      29.91R
ORANGEBURG     CLEAR     81  57  43 W8        29.93R
BARNWELL       FAIR      77  64  65 CALM      29.94S
AIKEN          FAIR      75  55  50 SW5       29.98S
MANNING        FAIR      75  68  78 W7        29.92R
COLUMBIA       PTCLDY    81  63  54 W6        29.91S
SUMTER         CLEAR     80  62  52 W6        29.90R
FLORENCE       CLEAR     82  66  58 NW3       29.90R
MYRTLE BEACH   NOT AVBL
N MYRTLE BEACH CLEAR     77  72  84 SW13      29.90S

$$

GAZ063-065-086>088-099>101-113>116-118-119-134>141-150-280200-
...SOUTHEAST GEORGIA...

CITY           SKY/WX    TMP DP  RH WIND       PRES   REMARKS
SAVANNAH ARPT  CLEAR     83  60  45 SW6       29.92F
HUNTER AAF     CLEAR     82  69  65 CALM      29.90F
FORT STEWART   CLEAR     80  63  56 S7        29.91F
STATESBORO     CLEAR     74  66  76 CALM      29.95R
SYLVANIA       CLEAR     77  65  65 CALM      29.95R
CLAXTON        FAIR      73  69  88 CALM      29.95R

...CSRA...CENTRAL AND FAR SOUTHEAST GEORGIA...

CITY           SKY/WX    TMP DP  RH WIND       PRES   REMARKS
THOMSON        MOCLDY    74  62  66 W6        29.99F HAZE
AUGUSTA-BUSH   CLEAR     80  60  50 W3        29.93S
AUGUSTA-DANIEL CLEAR     84  53  34 W3        29.95S
SWAINSBORO     FAIR      75  64  69 CALM      29.97R
VIDALIA        CLEAR     79  63  57 CALM      29.96R
EASTMAN        FAIR      81  49  33 W3        29.99S
HAZLEHURST     FAIR      78  63  59 CALM      29.96R
ALMA           CLEAR     76  64  66 CALM      29.95F
WAYCROSS       CLEAR     80  66  62 SW3       29.96S
JESUP          FAIR      75  61  60 CALM      29.95S
BAXLEY         FAIR      77  64  65 CALM      29.95S
BRUNSWICK      CLEAR     79  70  73 S7        29.97R
SAINT SIMONS   CLEAR     80  70  71 S10       29.96S

$$

SCZ027-028-034-036>038-045-046-048>050-GAZ119-141-280200-
...LAKE AND SUPPLEMENTAL COASTAL OBSERVATIONS...

STATION/POSITION TIME  TEMP    WIND        PRES    WAVE   SWELL
                       AIR SEA DIR/SP/G            HT/PER HT/PER/DIR
                 (UTC) (F)     (DEG/KT/KT) (MB)    (FT/S) (FT/S/D)
WINYAH BAY       0030   80     230/  7     1013.0R
LAKE MURRAY      0020   82     250/  7/  9 1012.2
ACE BASIN NERRS  0045   79        CALM     1014.0R
FORT PULASKI     0100   79     210/  8/ 12 1013.6
SAPELO ISLAND    0030   79     170/  6     1014.0S

$$

ANZ835-935-AMZ111-154-330-350-352-354-370-450-454-472-280200-
...C-MAN AND BUOY OBSERVATIONS...

STATION/POSITION TIME  TEMP    WIND        PRES    WAVE   SWELL
                       AIR SEA DIR/SP/G            HT/PER HT/PER/DIR
                 (UTC) (F)     (DEG/KT/KT) (MB)    (FT/S) (FT/S/D)
BUOY 41004       0110   77 75  210/ 12/ 16 1013.3
BUOY 41008       0050   79 78  170/ 14/ 17 1013.8S   2/ 8   2/100/ 8
FOLLY BEACH CMAN 0100   78     230/  8/ 10 1014.3R
CAPERS NEARSHORE 0108   82 77  230/ 14/ 17 1013.1R
FRIPP NEARSHORE  0108   79 78  220/ 14/ 19 1013.0R


STATION/POSITION TIME  TEMP    WIND        PRES    WAVE   SWELL
                       AIR SEA DIR/SP/G            HT/PER HT/PER/DIR
                 (UTC) (F)     (DEG/KT/KT) (MB)    (FT/S) (FT/S/D)
5E ST. MARYS GA  0100      79                N/A     2/ 7
FRYING PAN BUOY  0110   77 75  220/ 16/ 17 1013.0
BUOY 41025       0050   78 78  230/ 17/ 19 1012.1R   3/ 7   2/160/ 7
CAPE LOOKOUT NC  0100   76     220/ 11/ 15 1012.1S
BUOY 41002       0050   76 77  220/ 12/ 14 1015.5F   3/ 7   2/150/ 7
BUOY 41010       0110   80 80  150/  8/ 10 1016.6
ST AUGUSTINE FL  0100   76 79  170/ 14/ 15 1016.2F


$$




USA.gov is the U.S. government's official web portal to all federal, state and local government web resources and services.